When you browse on this site, cookies collect data to enhance your experience and personalize the content and advertising you see.
Visit our Privacy Policy to learn more. By continuing to use the site, you agree to this use of cookies and data.
  • In United Kingdom
  • List of Countries
  • For 7 days
  • Water Temperature
  • Weather Map
  • Weather Widgets
  • user-avatar
    Login

    Hourly Weather Perth

    Today, 20 August, Tuesday

    Time Temperature Precipitation Wind Pressure Humidity
    00:00 +12°C° 0 mm 2 mps 774 mmHg 72%
    01:00 +12°C° 0 mm 2 mps 774 mmHg 72%
    02:00 +12°C° 0 mm 2 mps 774 mmHg 69%
    03:00 +10°C° 0 mm 2 mps 774 mmHg 68%
    04:00 +10°C° 0 mm 3 mps 774 mmHg 67%
    05:00 +10°C° 0 mm 3 mps 774 mmHg 66%
    06:00 +10°C° 0 mm 3 mps 774 mmHg 64%
    07:00 +10°C° 0 mm 3 mps 774 mmHg 63%
    08:00 +12°C° 0 mm 2 mps 774 mmHg 61%
    09:00 +14°C° 0 mm 2 mps 774 mmHg 56%
    10:00 +16°C° 0 mm 3 mps 774 mmHg 50%
    11:00 +18°C° 0 mm 3 mps 774 mmHg 45%
    12:00 +19°C° 0 mm 3 mps 773 mmHg 44%
    13:00 +20°C° 0 mm 2 mps 772 mmHg 44%
    14:00 +23°C° 0 mm 1 mps 771 mmHg 44%
    15:00 +22°C° 0 mm 1 mps 771 mmHg 49%
    16:00 +20°C° 0 mm 2 mps 771 mmHg 54%
    17:00 +20°C° 0 mm 2 mps 771 mmHg 59%
    18:00 +18°C° 0 mm 2 mps 771 mmHg 62%
    19:00 +17°C° 0 mm 2 mps 771 mmHg 65%
    20:00 +16°C° 0 mm 2 mps 771 mmHg 68%
    21:00 +14°C° 0 mm 3 mps 771 mmHg 66%
    22:00 +14°C° 0 mm 3 mps 771 mmHg 65%
    23:00 +13°C° 0 mm 3 mps 770 mmHg 63%

    Tomorrow, 21 August, Wednesday

    Time Temperature Precipitation Wind Pressure Humidity
    00:00 +13°C° 0 mm 3 mps 770 mmHg 60%
    01:00 +13°C° 0 mm 4 mps 769 mmHg 58%
    02:00 +13°C° 0 mm 4 mps 769 mmHg 55%
    03:00 +12°C° 0 mm 4 mps 769 mmHg 53%
    04:00 +12°C° 0 mm 4 mps 769 mmHg 51%
    05:00 +11°C° 0 mm 3 mps 769 mmHg 50%
    06:00 +12°C° 0 mm 4 mps 769 mmHg 50%
    07:00 +12°C° 0 mm 4 mps 769 mmHg 49%
    08:00 +12°C° 0 mm 4 mps 769 mmHg 49%
    09:00 +14°C° 0 mm 5 mps 769 mmHg 47%
    10:00 +16°C° 0 mm 5 mps 769 mmHg 45%
    11:00 +19°C° 0 mm 5 mps 768 mmHg 43%
    12:00 +20°C° 0 mm 5 mps 767 mmHg 44%
    13:00 +21°C° 0 mm 5 mps 767 mmHg 44%
    14:00 +22°C° 0 mm 4 mps 766 mmHg 44%
    15:00 +21°C° 0 mm 4 mps 765 mmHg 47%
    16:00 +21°C° 0 mm 4 mps 765 mmHg 51%
    17:00 +20°C° 0 mm 3 mps 765 mmHg 54%
    18:00 +19°C° 0 mm 3 mps 765 mmHg 56%
    19:00 +17°C° 0 mm 3 mps 765 mmHg 59%
    20:00 +16°C° 0 mm 3 mps 765 mmHg 61%
    21:00 +16°C° 0 mm 3 mps 765 mmHg 59%
    22:00 +14°C° 0 mm 3 mps 764 mmHg 58%
    23:00 +14°C° 0 mm 3 mps 764 mmHg 56%

    Day after tomorrow, 22 August, Thursday

    Time Temperature Precipitation Wind Pressure Humidity
    00:00 +13°C° 0 mm 3 mps 764 mmHg 51%
    01:00 +13°C° 0 mm 4 mps 763 mmHg 47%
    02:00 +13°C° 0 mm 4 mps 763 mmHg 42%
    03:00 +13°C° 0 mm 4 mps 763 mmHg 41%
    04:00 +13°C° 0 mm 4 mps 762 mmHg 39%
    05:00 +13°C° 0 mm 4 mps 762 mmHg 37%
    06:00 +13°C° 0 mm 4 mps 762 mmHg 39%
    07:00 +13°C° 0 mm 4 mps 762 mmHg 40%
    08:00 +13°C° 0 mm 4 mps 762 mmHg 42%
    09:00 +15°C° 0 mm 5 mps 762 mmHg 41%
    10:00 +17°C° 0 mm 5 mps 761 mmHg 41%
    11:00 +20°C° 0 mm 5 mps 761 mmHg 41%
    12:00 +21°C° 0 mm 6 mps 761 mmHg 41%
    13:00 +21°C° 0 mm 6 mps 760 mmHg 41%
    14:00 +22°C° 0 mm 7 mps 759 mmHg 41%
    15:00 +21°C° 0.1 mm 7 mps 759 mmHg 50%
    16:00 +20°C° 0.1 mm 7 mps 759 mmHg 58%
    17:00 +18°C° 0.1 mm 7 mps 760 mmHg 67%
    18:00 +17°C° 1.1 mm 6 mps 760 mmHg 74%
    19:00 +17°C° 1.1 mm 6 mps 760 mmHg 81%
    20:00 +16°C° 1.1 mm 6 mps 760 mmHg 88%
    21:00 +15°C° 0.9 mm 5 mps 760 mmHg 86%
    22:00 +15°C° 0.9 mm 5 mps 761 mmHg 84%
    23:00 +15°C° 0.9 mm 5 mps 761 mmHg 81%

    23 August, Friday

    Time Temperature Precipitation Wind Pressure Humidity
    00:00 +14°C° 0.8 mm 5 mps 761 mmHg 82%
    01:00 +13°C° 0.8 mm 6 mps 762 mmHg 83%
    02:00 +13°C° 0.8 mm 6 mps 762 mmHg 84%
    03:00 +12°C° 0.1 mm 5 mps 762 mmHg 80%
    04:00 +12°C° 0.1 mm 5 mps 763 mmHg 77%
    05:00 +11°C° 0.1 mm 4 mps 763 mmHg 73%
    06:00 +11°C° 0 mm 4 mps 764 mmHg 74%
    07:00 +11°C° 0 mm 4 mps 765 mmHg 75%
    08:00 +10°C° 0 mm 4 mps 765 mmHg 76%
    09:00 +11°C° 0 mm 4 mps 766 mmHg 69%
    10:00 +12°C° 0 mm 4 mps 766 mmHg 62%
    11:00 +13°C° 0 mm 4 mps 767 mmHg 54%
    12:00 +13°C° 0 mm 4 mps 766 mmHg 53%
    13:00 +14°C° 0 mm 5 mps 766 mmHg 51%
    14:00 +14°C° 0 mm 5 mps 766 mmHg 50%
    15:00 +14°C° 0 mm 4 mps 766 mmHg 53%
    16:00 +13°C° 0 mm 4 mps 767 mmHg 56%
    17:00 +13°C° 0 mm 3 mps 767 mmHg 59%
    18:00 +12°C° 0 mm 3 mps 768 mmHg 60%
    19:00 +11°C° 0 mm 3 mps 768 mmHg 61%
    20:00 +10°C° 0 mm 3 mps 769 mmHg 63%
    21:00 +10°C° 0 mm 3 mps 769 mmHg 63%
    22:00 +9°C° 0 mm 3 mps 769 mmHg 64%
    23:00 +8°C° 0 mm 3 mps 769 mmHg 64%

    24 August, Saturday

    Time Temperature Precipitation Wind Pressure Humidity
    00:00 +8°C° 0 mm 3 mps 769 mmHg 66%
    01:00 +7°C° 0 mm 3 mps 769 mmHg 68%
    02:00 +7°C° 0 mm 3 mps 769 mmHg 70%
    03:00 +7°C° 0 mm 3 mps 769 mmHg 72%
    04:00 +5°C° 0 mm 3 mps 769 mmHg 73%
    05:00 +5°C° 0 mm 3 mps 769 mmHg 75%
    06:00 +5°C° 0 mm 3 mps 770 mmHg 73%
    07:00 +7°C° 0 mm 3 mps 770 mmHg 71%
    08:00 +7°C° 0 mm 3 mps 770 mmHg 69%
    09:00 +9°C° 0 mm 3 mps 770 mmHg 62%
    10:00 +10°C° 0 mm 3 mps 770 mmHg 55%
    11:00 +12°C° 0 mm 4 mps 770 mmHg 49%
    12:00 +13°C° 0 mm 3 mps 769 mmHg 48%
    13:00 +14°C° 0 mm 3 mps 768 mmHg 47%
    14:00 +15°C° 0 mm 2 mps 767 mmHg 46%
    15:00 +15°C° 0 mm 2 mps 767 mmHg 49%
    16:00 +15°C° 0 mm 2 mps 767 mmHg 52%
    17:00 +14°C° 0 mm 2 mps 767 mmHg 55%
    18:00 +13°C° 0 mm 2 mps 768 mmHg 59%
    19:00 +12°C° 0 mm 2 mps 768 mmHg 62%
    20:00 +10°C° 0 mm 3 mps 768 mmHg 66%
    21:00 +10°C° 0 mm 3 mps 768 mmHg 67%
    22:00 +9°C° 0 mm 3 mps 768 mmHg 69%
    23:00 +9°C° 0 mm 2 mps 768 mmHg 70%

    25 August, Sunday

    Time Temperature Precipitation Wind Pressure Humidity
    00:00 +8°C° 0 mm 2 mps 767 mmHg 70%
    01:00 +8°C° 0 mm 2 mps 767 mmHg 71%
    02:00 +8°C° 0 mm 2 mps 767 mmHg 71%
    03:00 +7°C° 0 mm 2 mps 767 mmHg 72%
    04:00 +7°C° 0 mm 2 mps 767 mmHg 73%
    05:00 +7°C° 0 mm 2 mps 767 mmHg 73%
    06:00 +7°C° 0 mm 2 mps 767 mmHg 72%
    07:00 +7°C° 0 mm 2 mps 767 mmHg 70%
    08:00 +7°C° 0 mm 2 mps 767 mmHg 69%
    09:00 +10°C° 0 mm 2 mps 767 mmHg 62%
    10:00 +13°C° 0 mm 1 mps 767 mmHg 54%
    11:00 +15°C° 0 mm 1 mps 767 mmHg 47%
    12:00 +16°C° 0 mm 1 mps 766 mmHg 46%
    13:00 +16°C° 0 mm 2 mps 766 mmHg 44%
    14:00 +17°C° 0 mm 2 mps 765 mmHg 43%
    15:00 +17°C° 0 mm 2 mps 765 mmHg 48%
    16:00 +16°C° 0 mm 3 mps 765 mmHg 54%
    17:00 +16°C° 0 mm 3 mps 765 mmHg 59%
    18:00 +13°C° 0 mm 3 mps 766 mmHg 62%
    19:00 +12°C° 0 mm 3 mps 766 mmHg 65%
    20:00 +12°C° 0 mm 2 mps 767 mmHg 68%
    21:00 +12°C° 0 mm 2 mps 767 mmHg 68%
    22:00 +10°C° 0 mm 3 mps 767 mmHg 68%
    23:00 +10°C° 0 mm 3 mps 767 mmHg 67%
    Show more